Regional Weather Roundup
Issued by NWS Wilmington, NC

Home | Current Version | Previous Version | Text Only | Print | Product List | Glossary On
Versions: 1 2 3 4 5 6 7 8 9 10 11 12 13 14 15 16 17 18 19 20 21 22 23 24 25 26 27
000
ASUS42 KILM 010610
RWRILM
RWRILM
REGIONAL HOURLY WEATHER ROUNDUP
NATIONAL WEATHER SERVICE WILMINGTON NC
200 AM EDT SAT NOV 01 2014

NOTE: "FAIR" INDICATES FEW OR NO CLOUDS BELOW 12,000 FEET WITH NO
SIGNIFICANT WEATHER AND/OR OBSTRUCTIONS TO VISIBILITY.

...............WFO WILMINGTON COUNTY WARNING AREA...............

......COASTAL NC AND SC COUNTIES......

CITY           SKY/WX    TMP DP  RH WIND       PRES   REMARKS
WILMINGTON     CLEAR     45  42  89 NE5       29.73F
SOUTHPORT      PTCLDY    48  43  82 CALM      29.72F
N MYRTLE BEACH CLOUDY    53  47  79 NE5       29.71F
MYRTLE BEACH   CLOUDY    54  48  82 W6        29.71F

......INLAND NC AND SC COUNTIES.......

CITY           SKY/WX    TMP DP  RH WIND       PRES   REMARKS
LUMBERTON      LGT RAIN  52  44  74 VRB6      29.73S
ELIZABETHTOWN  CLOUDY    49  44  80 E3        29.73F
WHITEVILLE     CLOUDY    51  45  82 E3        29.72F
FLORENCE       CLOUDY    53  50  89 N8        29.72F
DARLINGTON     CLOUDY    52  46  82 NE8       29.74F

....................REST OF NORTH CAROLINA......................

.........EASTERN NC.........

CITY           SKY/WX    TMP DP  RH WIND       PRES   REMARKS
CAPE HATTERAS  MOCLDY    55  48  77 VRB7      29.70S
JACKSONVILLE   CLEAR     41  37  87 CALM      29.74F
MOREHEAD CITY  CLEAR     48  44  86 CALM      29.72F
KENANSVILLE    CLEAR     41  40  97 CALM      29.74F
NEW BERN       CLEAR     48  42  80 CALM      29.74F
ELIZABETH CITY CLEAR     47  40  76 NW6       29.72F

.........CENTRAL NC.........

CITY           SKY/WX    TMP DP  RH WIND       PRES   REMARKS
RALEIGH DURHAM CLOUDY    50  40  68 VRB6      29.76R
ROCKY MOUNT    CLEAR     41  39  93 CALM      29.75F
ROANOKE RAPIDS NOT AVBL
FAYETTEVILLE   CLOUDY    49  44  83 E5        29.72F
HOFFMAN        NOT AVBL

.........WESTERN NC.........

CITY           SKY/WX    TMP DP  RH WIND       PRES   REMARKS
CHARLOTTE      LGT RAIN  47  44  90 N8        29.76F
GREENSBORO     LGT RAIN  45  44  97 N7        29.75F
HICKORY        NOT AVBL
BOONE          NOT AVBL
ASHEVILLE      NOT AVBL

.....................REST OF SOUTH CAROLINA.....................

.........EASTERN SC.........

CITY           SKY/WX    TMP DP  RH WIND       PRES   REMARKS
CHARLESTON     PTCLDY    54  51  90 W8        29.74F
BEAUFORT MCAS    N/A    N/A N/A N/A MISG      29.78S
HILTON HEAD    NOT AVBL

.........CENTRAL SC.........

CITY           SKY/WX    TMP DP  RH WIND       PRES   REMARKS
COLUMBIA       CLOUDY    54  47  77 NW9G17    29.74S
ORANGEBURG     MOCLDY    53  45  74 W7        29.74F
SUMTER SHAW    CLOUDY    53  52  97 SW5       29.69F

.........WESTERN SC.........

CITY           SKY/WX    TMP DP  RH WIND       PRES   REMARKS
GREENVILLE     NOT AVBL
ROCK HILL      LGT RAIN  47  45  93 N7        29.76S
ANDERSON       LGT RAIN  46  31  55 NW12      29.78F
CLEMSON        NOT AVBL
GREENWOOD      LGT RAIN  48  42  80 W7        29.78F


...................COASTAL AND OFFSHORE REPORTS..................

................LOCAL PIERS AND NC RESERVE................


STATION/POSITION TIME  SKY/WX   TEMP    WIND        PRES    VSBY
                                AIR SEA DIR/SP/G
                 (UTC)          (F)     (DEG/KT/KT) (MB)    (MI)
JOHNY MRCER PIER 0600            55 71  360/  6/  7 1006.1F
NC RESRV MASNBRO 0500            51     360/  2     1006.0S
OCEAN CREST PIER 0600            51 69  360/  7/  9 1005.5F
SPRINGMAID  PIER 0600            58 68  280/  6/  9 1006.0F


................COASTAL AND OFFSHORE BUOYS................


STATION/POSITION TIME  SKY/WX   TEMP    WIND        PRES    VSBY
                                AIR SEA DIR/SP/G
                 (UTC)          (F)     (DEG/KT/KT) (MB)    (MI)
DIMNDSHOAL 41025 0600            60     330/ 19/ 25 1004.8R
WVE H/P(F/S)=  5/ 8 WND WVE H/P(F/S)=  5/ 8

CAPE LOOKOUT     0500            55     360/ 10/ 13 1006.6F
ONSLOW BAY 41036 0600            60 73   40/  8/ 12 1005.8F
WVE H/P(F/S)=  4/ 5 WND WVE H/P(F/S)=  2/ 3 SWL H/P/D(F/S/D)=  3/ 50/ 5

5 WRITEBCH 41038 0500            58 71  100/  6/ 10   N/A
MASONBORO  41110 0600               71                N/A
WVE H/P(F/S)=  3/ 8 WND WVE H/P(F/S)=  3/ 8

WILM HARBR 41108 0600               70                N/A
WVE H/P(F/S)=  2/ 6 WND WVE H/P(F/S)=  2/ 6

27WRITEBCH 41037 0500            59 74   50/  8/ 10 1006.6F
FRYING PAN 41013 0600            63 73   10/  4/  6 1007.0F
WVE H/P(F/S)=  3/ 9 WND WVE H/P(F/S)=  2/ 4 SWL H/P/D(F/S/D)=  3/ 80/ 9

SUNST NRSH 41024 0500            60      80/ 10/ 12 1006.6F
CAPRS NRSH 41029 0500            61     270/ 10/ 14   N/A
EDISTO     41004 0600            62 77  250/  4/  6 1006.5F
WVE H/P(F/S)=  4/ 7 WND WVE H/P(F/S)=  2/ 4 SWL H/P/D(F/S/D)=  3/ 7



..........OFFSHORE BUOYS BEYOND 100 NM OFFSHORE...........
.....IN A TRIANGLE---HAT TO BERMUDA TO BAHAMAS TO HAT.....


STATION/POSITION TIME  SKY/WX   TEMP    WIND        PRES    VSBY
                                AIR SEA DIR/SP/G
                 (UTC)          (F)     (DEG/KT/KT) (MB)    (MI)
150E HAT   41001 NOT AVBL
W BERMUDA  41048 0524            77 78  230/ 14/ 16 1005.4S
WVE H/P(F/S)=  5/ 9 WND WVE H/P(F/S)=  3/ 6 SWL H/P/D(F/S/D)=  3/150/ 9

ATLANTIC S 41049 0513            80 80  190/ 12/ 14 1011.4F
WVE H/P(F/S)=  6/ 7 WND WVE H/P(F/S)=  3/ 5 SWL H/P/D(F/S/D)=  5/160/ 7

E BAHAMAS  41046 0548            82 84  170/  8/ 12 1012.0F
WVE H/P(F/S)=  4/ 9 SWL H/P/D(F/S/D)=  3/110/ 9

NE BAHAMAS 41047 0452            80 81  230/ 16/ 19 1009.4F
WVE H/P(F/S)=  5/ 8 WND WVE H/P(F/S)=  3/ 5 SWL H/P/D(F/S/D)=  3/100/ 8

120E CANVRL41010 0600            74 82  290/ 12/ 21 1009.1F
WVE H/P(F/S)=  5/ 6 WND WVE H/P(F/S)=  3/ 4


END



USA.gov is the U.S. government's official web portal to all federal, state and local government web resources and services.